Location: ??????????
(48.4699°N, 37.9573°E)
Time: 12:27:57
(UTC+00:00)

SL-08 RB Rocket - Pass Details

Date: 20 January 2021
Orbit: 647 x 684 km, 97.8° (Epoch: 27 February)

Event Time Altitude Azimuth Distance (km) Brightness Sun altitude
Exits shadow 16:27:10 51° 27° (NNE) 834 3.9 -22.6°
Drops below altitude 10° 16:30:48 10° 353° (N) 2,073 6.3 -23.2°
Sets 16:33:02 0° 350° (N) 2,985 7.1 -23.6°
